timestamp,wind_dir_avg,wind_spd_max_dir,wind_spd_avg,wind_spd_gust,battery_voltage,lat,long
2018-07-09 00:00:00+00:00,221.0,221.0,8.97,9.96,,47.59359,-54.27349
2018-07-09 00:10:00+00:00,221.0,219.0,8.54,9.46,,47.59359,-54.27349
2018-07-09 00:20:00+00:00,221.0,222.0,9.19,10.16,,47.59359,-54.27349
2018-07-09 00:30:00+00:00,221.0,221.0,8.66,9.48,,47.59359,-54.27349
2018-07-09 00:40:00+00:00,220.0,220.0,8.67,9.52,,47.59359,-54.27349
2018-07-09 00:50:00+00:00,222.0,225.0,10.07,11.43,,47.59359,-54.27349
2018-07-09 01:00:00+00:00,222.0,224.0,9.03,9.64,,47.59359,-54.27349
2018-07-09 01:10:00+00:00,223.0,222.0,10.14,11.24,,47.59359,-54.27349
2018-07-09 01:20:00+00:00,225.0,223.0,9.87,11.84,,47.59359,-54.27349
2018-07-09 01:30:00+00:00,223.0,221.0,8.61,9.48,,47.59359,-54.27349
2018-07-09 01:40:00+00:00,224.0,223.0,8.97,9.91,,47.59359,-54.27349
2018-07-09 01:50:00+00:00,223.0,222.0,9.35,10.84,,47.59359,-54.27349
2018-07-09 02:00:00+00:00,222.0,228.0,9.04,10.18,,47.59359,-54.27349
2018-07-09 02:10:00+00:00,222.0,224.0,8.8,9.75,,47.59359,-54.27349
2018-07-09 02:20:00+00:00,221.0,222.0,9.05,10.37,,47.59359,-54.27349
2018-07-09 02:30:00+00:00,220.0,219.0,9.2,10.04,,47.59359,-54.27349
2018-07-09 02:40:00+00:00,222.0,223.0,9.42,10.47,,47.59359,-54.27349
2018-07-09 02:50:00+00:00,219.0,223.0,7.83,9.0,,47.59359,-54.27349
2018-07-09 03:00:00+00:00,222.0,224.0,8.33,9.28,,47.59359,-54.27349
2018-07-09 03:10:00+00:00,220.0,223.0,8.2,9.09,,47.59359,-54.27349
2018-07-09 03:20:00+00:00,226.0,230.0,8.34,9.42,,47.59359,-54.27349
2018-07-09 03:30:00+00:00,229.0,231.0,7.92,9.03,,47.59359,-54.27349
2018-07-09 03:40:00+00:00,228.0,230.0,8.37,9.6,,47.59359,-54.27349
2018-07-09 03:50:00+00:00,226.0,226.0,7.94,8.9,,47.59359,-54.27349
2018-07-09 04:00:00+00:00,228.0,226.0,7.87,8.84,,47.59359,-54.27349
2018-07-09 04:10:00+00:00,225.0,225.0,7.13,8.52,,47.59359,-54.27349
2018-07-09 04:20:00+00:00,239.0,240.0,6.3,7.32,,47.59359,-54.27349
2018-07-09 04:30:00+00:00,239.0,240.0,7.03,8.06,,47.59359,-54.27349
2018-07-09 04:40:00+00:00,236.0,240.0,7.71,8.49,,47.59359,-54.27349
2018-07-09 04:50:00+00:00,226.0,227.0,7.23,8.14,,47.59359,-54.27349
2018-07-09 05:00:00+00:00,236.0,239.0,7.01,7.92,,47.59359,-54.27349
2018-07-09 05:10:00+00:00,231.0,235.0,7.09,8.11,,47.59359,-54.27349
2018-07-09 05:20:00+00:00,237.0,242.0,6.94,7.9,,47.59359,-54.27349
2018-07-09 05:30:00+00:00,233.0,235.0,7.48,8.59,,47.59359,-54.27349
2018-07-09 05:40:00+00:00,211.0,217.0,6.54,7.1,,47.59359,-54.27349
2018-07-09 05:50:00+00:00,220.0,223.0,6.91,7.73,,47.59359,-54.27349
2018-07-09 06:00:00+00:00,231.0,232.0,7.58,8.69,,47.59359,-54.27349
2018-07-09 06:10:00+00:00,230.0,233.0,7.74,9.17,,47.59359,-54.27349
2018-07-09 06:20:00+00:00,220.0,218.0,8.87,9.73,,47.59359,-54.27349
2018-07-09 06:30:00+00:00,220.0,219.0,8.93,9.97,,47.59359,-54.27349
2018-07-09 06:40:00+00:00,217.0,216.0,8.11,8.96,,47.59359,-54.27349
2018-07-09 06:50:00+00:00,218.0,219.0,6.6,7.26,,47.59359,-54.27349
2018-07-09 07:00:00+00:00,225.0,229.0,7.63,8.48,,47.59359,-54.27349
2018-07-09 07:10:00+00:00,240.0,245.0,8.82,10.44,,47.59359,-54.27349
2018-07-09 07:20:00+00:00,236.0,239.0,8.68,9.81,,47.59359,-54.27349
2018-07-09 07:30:00+00:00,221.0,223.0,8.58,9.86,,47.59359,-54.27349
2018-07-09 07:40:00+00:00,230.0,229.0,9.15,9.83,,47.59359,-54.27349
2018-07-09 07:50:00+00:00,227.0,227.0,8.94,9.65,,47.59359,-54.27349
2018-07-09 08:00:00+00:00,222.0,228.0,9.35,10.59,,47.59359,-54.27349
2018-07-09 08:10:00+00:00,229.0,230.0,9.3,10.58,,47.59359,-54.27349
2018-07-09 08:20:00+00:00,230.0,232.0,10.11,11.76,,47.59359,-54.27349
2018-07-09 08:30:00+00:00,232.0,231.0,9.15,10.41,,47.59359,-54.27349
2018-07-09 08:40:00+00:00,232.0,235.0,9.44,11.42,,47.59359,-54.27349
2018-07-09 08:50:00+00:00,229.0,228.0,10.9,12.65,,47.59359,-54.27349
2018-07-09 09:00:00+00:00,230.0,234.0,9.94,11.35,,47.59359,-54.27349
2018-07-09 09:10:00+00:00,229.0,235.0,11.19,12.75,,47.59359,-54.27349
2018-07-09 09:20:00+00:00,224.0,226.0,10.52,12.03,,47.59359,-54.27349
2018-07-09 09:30:00+00:00,223.0,224.0,9.96,11.16,,47.59359,-54.27349
2018-07-09 09:40:00+00:00,219.0,221.0,11.04,12.8,,47.59359,-54.27349
2018-07-09 09:50:00+00:00,223.0,221.0,10.18,11.12,,47.59359,-54.27349
2018-07-09 10:00:00+00:00,220.0,226.0,9.91,11.41,,47.59359,-54.27349
2018-07-09 10:10:00+00:00,222.0,226.0,9.94,11.23,,47.59359,-54.27349
2018-07-09 10:20:00+00:00,219.0,219.0,9.41,10.97,,47.59359,-54.27349
2018-07-09 10:30:00+00:00,221.0,223.0,8.66,10.35,,47.59359,-54.27349
2018-07-09 10:40:00+00:00,222.0,220.0,9.01,10.18,,47.59359,-54.27349
2018-07-09 10:50:00+00:00,223.0,222.0,9.48,10.26,,47.59359,-54.27349
2018-07-09 11:00:00+00:00,224.0,223.0,10.21,11.47,,47.59359,-54.27349
2018-07-09 11:10:00+00:00,223.0,222.0,9.6,10.91,,47.59359,-54.27349
2018-07-09 11:20:00+00:00,224.0,226.0,9.71,10.75,,47.59359,-54.27349
2018-07-09 11:30:00+00:00,223.0,225.0,11.0,12.41,,47.59359,-54.27349
2018-07-09 11:40:00+00:00,220.0,229.0,10.27,11.86,,47.59359,-54.27349
2018-07-09 11:50:00+00:00,216.0,218.0,10.59,11.71,,47.59359,-54.27349
2018-07-09 12:00:00+00:00,218.0,218.0,9.8,10.72,,47.59359,-54.27349
2018-07-09 12:10:00+00:00,218.0,220.0,9.43,10.44,,47.59359,-54.27349
2018-07-09 12:20:00+00:00,218.0,218.0,10.87,12.01,,47.59359,-54.27349
2018-07-09 12:30:00+00:00,219.0,218.0,10.94,11.97,,47.59359,-54.27349
2018-07-09 12:40:00+00:00,218.0,223.0,11.34,13.48,,47.59359,-54.27349
2018-07-09 12:50:00+00:00,216.0,217.0,12.23,13.56,,47.59359,-54.27349
2018-07-09 13:00:00+00:00,219.0,220.0,11.94,13.11,,47.59359,-54.27349
2018-07-09 13:10:00+00:00,218.0,219.0,11.5,12.76,,47.59359,-54.27349
2018-07-09 13:20:00+00:00,221.0,221.0,11.79,13.84,,47.59359,-54.27349
2018-07-09 13:30:00+00:00,220.0,221.0,12.62,14.02,,47.59359,-54.27349
2018-07-09 13:40:00+00:00,220.0,224.0,12.53,14.25,,47.59359,-54.27349
2018-07-09 13:50:00+00:00,220.0,219.0,12.35,14.69,,47.59359,-54.27349
2018-07-09 14:00:00+00:00,223.0,220.0,11.92,14.19,,47.59359,-54.27349
2018-07-09 14:10:00+00:00,225.0,228.0,13.54,15.41,,47.59359,-54.27349
2018-07-09 14:20:00+00:00,225.0,226.0,13.08,14.51,,47.59359,-54.27349
2018-07-09 14:30:00+00:00,220.0,219.0,13.07,14.64,,47.59359,-54.27349
2018-07-09 14:40:00+00:00,219.0,217.0,12.91,14.64,,47.59359,-54.27349
2018-07-09 14:50:00+00:00,220.0,218.0,12.06,13.25,,47.59359,-54.27349
2018-07-09 15:00:00+00:00,218.0,217.0,13.21,14.88,,47.59359,-54.27349
2018-07-09 15:10:00+00:00,216.0,213.0,12.24,14.25,,47.59359,-54.27349
2018-07-09 15:20:00+00:00,218.0,223.0,12.92,15.13,,47.59359,-54.27349
2018-07-09 15:30:00+00:00,223.0,229.0,12.47,14.56,,47.59359,-54.27349
2018-07-09 15:40:00+00:00,225.0,220.0,13.36,14.99,,47.59359,-54.27349
2018-07-09 15:50:00+00:00,227.0,229.0,12.33,14.21,,47.59359,-54.27349
2018-07-09 16:00:00+00:00,227.0,229.0,13.21,14.61,,47.59359,-54.27349
2018-07-09 16:10:00+00:00,228.0,231.0,12.72,15.3,,47.59359,-54.27349
2018-07-09 16:20:00+00:00,223.0,221.0,12.42,14.83,,47.59359,-54.27349
2018-07-09 16:30:00+00:00,225.0,226.0,12.22,13.65,,47.59359,-54.27349
2018-07-09 16:40:00+00:00,223.0,227.0,13.22,15.14,,47.59359,-54.27349
2018-07-09 16:50:00+00:00,225.0,225.0,12.28,14.38,,47.59359,-54.27349
2018-07-09 17:00:00+00:00,220.0,222.0,12.32,13.75,,47.59359,-54.27349
2018-07-09 17:10:00+00:00,222.0,225.0,12.21,14.62,,47.59359,-54.27349
2018-07-09 17:20:00+00:00,225.0,229.0,13.08,15.37,,47.59359,-54.27349
2018-07-09 17:30:00+00:00,224.0,221.0,13.19,15.38,,47.59359,-54.27349
2018-07-09 17:40:00+00:00,219.0,221.0,14.06,15.56,,47.59359,-54.27349
2018-07-09 17:50:00+00:00,220.0,224.0,14.31,16.11,,47.59359,-54.27349
2018-07-09 18:00:00+00:00,224.0,230.0,14.55,17.73,,47.59359,-54.27349
2018-07-09 18:10:00+00:00,224.0,221.0,14.29,16.95,,47.59359,-54.27349
2018-07-09 18:20:00+00:00,223.0,220.0,13.97,15.52,,47.59359,-54.27349
2018-07-09 18:30:00+00:00,225.0,229.0,14.07,16.34,,47.59359,-54.27349
2018-07-09 18:40:00+00:00,225.0,225.0,13.88,16.3,,47.59359,-54.27349
2018-07-09 18:50:00+00:00,221.0,229.0,14.48,16.62,,47.59359,-54.27349
2018-07-09 19:00:00+00:00,221.0,223.0,14.65,17.35,,47.59359,-54.27349
2018-07-09 19:10:00+00:00,219.0,223.0,14.13,15.51,,47.59359,-54.27349
2018-07-09 19:20:00+00:00,221.0,224.0,12.96,15.05,,47.59359,-54.27349
2018-07-09 19:30:00+00:00,222.0,226.0,13.82,15.43,,47.59359,-54.27349
2018-07-09 19:40:00+00:00,224.0,223.0,14.03,17.53,,47.59359,-54.27349
2018-07-09 19:50:00+00:00,224.0,227.0,14.88,17.71,,47.59359,-54.27349
2018-07-09 20:00:00+00:00,221.0,223.0,13.65,15.68,,47.59359,-54.27349
2018-07-09 20:10:00+00:00,221.0,226.0,13.48,15.41,,47.59359,-54.27349
2018-07-09 20:20:00+00:00,222.0,221.0,13.6,15.47,,47.59359,-54.27349
2018-07-09 20:30:00+00:00,219.0,222.0,12.46,14.57,,47.59359,-54.27349
2018-07-09 20:40:00+00:00,219.0,222.0,13.38,14.88,,47.59359,-54.27349
2018-07-09 20:50:00+00:00,221.0,225.0,13.99,15.84,,47.59359,-54.27349
2018-07-09 21:00:00+00:00,219.0,219.0,14.01,15.91,,47.59359,-54.27349
2018-07-09 21:10:00+00:00,219.0,221.0,13.3,15.34,,47.59359,-54.27349
2018-07-09 21:20:00+00:00,218.0,218.0,12.28,13.59,,47.59359,-54.27349
2018-07-09 21:30:00+00:00,220.0,220.0,12.57,15.39,,47.59359,-54.27349
2018-07-09 21:40:00+00:00,220.0,224.0,12.43,14.35,,47.59359,-54.27349
2018-07-09 21:50:00+00:00,221.0,219.0,12.17,13.94,,47.59359,-54.27349
2018-07-09 22:00:00+00:00,223.0,221.0,12.69,14.62,,47.59359,-54.27349
2018-07-09 22:10:00+00:00,224.0,227.0,13.05,15.12,,47.59359,-54.27349
2018-07-09 22:20:00+00:00,224.0,230.0,12.53,13.89,,47.59359,-54.27349
2018-07-09 22:30:00+00:00,224.0,225.0,12.66,14.57,,47.59359,-54.27349
2018-07-09 22:40:00+00:00,225.0,230.0,12.7,14.72,,47.59359,-54.27349
2018-07-09 22:50:00+00:00,225.0,227.0,12.26,13.98,,47.59359,-54.27349
2018-07-09 23:00:00+00:00,224.0,223.0,10.57,11.8,,47.59359,-54.27349
2018-07-09 23:10:00+00:00,224.0,222.0,11.3,12.82,,47.59359,-54.27349
2018-07-09 23:20:00+00:00,225.0,224.0,11.1,13.08,,47.59359,-54.27349
2018-07-09 23:30:00+00:00,226.0,224.0,11.73,13.11,,47.59359,-54.27349
2018-07-09 23:40:00+00:00,225.0,227.0,13.53,15.84,,47.59359,-54.27349
2018-07-09 23:50:00+00:00,226.0,226.0,12.86,14.46,,47.59359,-54.27349
